Location: General Nathan Twining Observatory
(34.5931°N, 106.8201°W)
Time: 01:13:58
(UTC-06:00)

USA 229 DEB - Pass Details

Date: 20 September 2017
Orbit: 1046 x 1166 km, 63.4° (Epoch: 12 October)

Event Time Altitude Azimuth Distance (km) Brightness Sun altitude
Rises 20:18:37 0° 329° (NNW) 3,960 7.3 -15.6°
Reaches altitude 10° 20:21:17 10° 331° (NNW) 3,015 6.6 -16.1°
Maximum altitude 20:28:31 83° 59° (ENE) 1,162 3.8 -17.6°
Enters shadow 20:34:30 17° 147° (SSE) 2,580 5.3 -18.8°
